STARLINK-35750 (66209 NORAD) Tracking and Keplerian Element Data

This shows tracking and keplerian element data for the satellite.

Feedback or suggestion? Click here.




ElementValue
Catalog66209
NameSTARLINK-35750
Epoch Orbit944
Epoch Day354.07167007
Epoch Year2025
RAAN241.5791
Inclination53.1603
Eccentricity0.0001384
Argument of Perigee81.2106
Mean Anonmoly278.9056
Mean Motion15.39618347
Decay Rate0.00012511
L11 66209U 25244D 25354.07167007 .00012511 00000+0 32225-3 0 9993
L22 66209 53.1603 241.5791 0001384 81.2106 278.9056 15.39618347 9447



Live tracking and technical data element details for STARLINK-35750 (NORAD 66209). STARLINK-35750 can be tracked NOW for your location showing map with azimuth and elevation plus other details from your city location.







IsCatalogInMostPopularTable: catalog: 66209, numindb: 12
Update: records affected: 1



GetName: 66209 STARLINK-35750

Hit Count: updated at: Tue, 21 Apr 2026 19:25:16 GMT